sat.trackr.live / text

‹ back to catalog

KUIPER-00448

NORAD 68871 · 2026-095H

PAYLOAD ACTIVE UNKNOWN

§ Identity

Operator
Country
US
Launch date
2026-04-28
Launch site
AFETR
Launch vehicle
Mass (kg)
RCS (m²)

External: N2YO · Heavens-Above · Gunter

§ Orbital elements

Epoch: 2026-05-25T00:02:29.943744Z

Period
93.62 min
Inclination
51.8844°
Eccentricity
0.0003244
Mean motion
15.38176130 rev/d
Perigee alt
449.3 km
Apogee alt
453.7 km
Semi-major
6,829.6 km
B*
6.8029e-4
RAAN
354.3990°
Arg perigee
197.9885°
Mean anomaly
162.0987°
Rev number
416

§ Raw data

KUIPER-004481 68871U 26095H   26145.00173546  .00025676  00000+0  68029-3 0  99992 68871  51.8844 354.3990 0003244 197.9885 162.0987 15.38176130  4164

JSON: /api/v1/satellites/68871 · /tle

For live sub-satellite position, see the globe view (requires WebGL).

§ Visibility from observer

Set your observer location to see the next 7 days of passes ≥ 10°. The values pass through the URL so the page stays shareable.

No JS? Fill the form by hand. The geolocation button needs JavaScript.